Tracking 17558 objects as of 9-February-2016
HD Live streaming from Space Station
objects crossing your sky now

BREEZE-M DEB

Track BREEZE-M DEB now!
10-day predictions


NORAD ID: 34250
Int'l Code: 2006-006BR
Perigee: 488.9 km
Apogee: 14,764.0 km
Inclination: 51.7 °
Period: 274.7 minutes
Semi major axis: 13997 km
RCS: 0.0694 m2 (small)
Launch date: February 28, 2006
Source: Commonwealth of Independent States (former USSR) (CIS)
Launch site: TYURATAM MISSILE AND SPACE COMPLEX (TTMTR)

Note: This is SATELLITE DEBRIS
Your satellite tracking list
Your tracking list is empty





NASA's NSSDC Master Catalog

Two Line Element Set (TLE):
1 34250U 06006BR  16038.41414718  .00000263  00000-0  48471-3 0  9992
2 34250  51.7149  38.3203 5099169 130.2098 287.0787  5.2423861915616
Source of the keplerian elements: AFSPC

N2YO: 1114